Retour au catalogue

COSMOS 970 DEB

ActifLEO
NORAD 14444·DEBRIS·🇷🇺 Russia

Lancé Dec 21, 1977 depuis Baikonur Cosmodrome

Loading…

Prochains Passages (prochaines 24 heures)

TLE

FraisSource: Space-Track

Époque: Sep 14, 2026, 05:19 UTC

1 14444U 77121BG  26257.22195331  .00000644  00000-0  71421-3 0  9995
2 14444  65.7989 345.2057 0063146 276.0287 109.2790 13.77802507248777

Suivez COSMOS 970 DEB en temps réel avec AllMySat

Download on the App Store